Location: �terpigny
(49.8910°N, 2.9249°E)
Time: 04:23:02
(UTC+00:00)

DIWATA 2B (PO-101) - Pass Details

Date: 03 July 2022
Orbit: 583 x 599 km, 98.0° (Epoch: 13 August)

Event Time Altitude Azimuth Distance (km) Brightness Sun altitude
Exits shadow 00:20:07 - 120° (ESE) 2,439 ? -16.9°
Reaches altitude 10° 00:21:37 10° 109° (ESE) 1,941 ? -16.8°
Maximum altitude 00:24:42 20° 61° (ENE) 1,399 ? -16.8°
Drops below altitude 10° 00:27:48 10° 14° (NNE) 1,952 ? -16.7°
Sets 00:30:25 0° 358° (N) 2,858 ? -16.6°
